TimeCET,TemperatureF,Dew PointF,Humidity,Sea Level PressureIn,VisibilityMPH,Wind Direction,Wind SpeedMPH,Gust SpeedMPH,PrecipitationIn,Events,Conditions,WindDirDegrees,DateUTC
12:00 AM,42,40,88,30.20,19,East,4.5,,,,Partly Cloudy,90,2014-01-10 23:00:00
12:45 AM,41.0,39.2,93,30.18,6.2,ENE,5.8,-,N/A,,Mostly Cloudy,70,2014-01-10 23:45:00
1:00 AM,42,40,88,30.19,19,ENE,6.7,,,,Partly Cloudy,70,2014-01-11 00:00:00
1:45 AM,41.0,39.2,93,30.15,6.2,East,6.9,-,N/A,,Mostly Cloudy,100,2014-01-11 00:45:00
2:00 AM,41,40,92,30.19,19,East,6.7,,,,Partly Cloudy,100,2014-01-11 01:00:00
2:45 AM,41.0,39.2,93,30.18,6.2,ESE,5.8,-,N/A,,Mostly Cloudy,120,2014-01-11 01:45:00
3:00 AM,41,40,93,30.19,19,ESE,6.7,,,,Partly Cloudy,120,2014-01-11 02:00:00
3:45 AM,41.0,39.2,93,30.15,6.2,ENE,3.5,-,N/A,,Mostly Cloudy,60,2014-01-11 02:45:00
4:00 AM,41,40,93,30.19,19,ENE,4.5,,,,Partly Cloudy,60,2014-01-11 03:00:00
4:45 AM,41.0,39.2,93,30.15,6.2,East,4.6,-,N/A,,Mostly Cloudy,80,2014-01-11 03:45:00
5:00 AM,41,39,92,30.18,19,East,4.5,,,,Partly Cloudy,80,2014-01-11 04:00:00
5:15 AM,41.0,39.2,93,30.15,6.2,East,5.8,-,N/A,,Mostly Cloudy,100,2014-01-11 04:15:00
5:45 AM,41.0,39.2,93,30.15,6.2,East,3.5,-,N/A,,Mostly Cloudy,90,2014-01-11 04:45:00
6:00 AM,41,39,90,30.18,19,East,2.2,,,,Partly Cloudy,90,2014-01-11 05:00:00
6:00 AM,-9999,-9999,N/A,-9999,6.2,Variable,3.5,-,N/A,,Mostly Cloudy,0,2014-01-11 05:00:00
6:15 AM,39.2,37.4,93,30.15,6.2,East,4.6,-,N/A,,Mostly Cloudy,100,2014-01-11 05:15:00
6:45 AM,39.2,37.4,93,30.15,6.2,ENE,3.5,-,N/A,,Mostly Cloudy,70,2014-01-11 05:45:00
7:00 AM,39,38,94,30.19,19,ENE,4.5,,,,Partly Cloudy,70,2014-01-11 06:00:00
7:15 AM,41.0,39.2,93,30.18,6.2,ENE,3.5,-,N/A,,Mostly Cloudy,70,2014-01-11 06:15:00
7:45 AM,41.0,39.2,93,30.18,6.2,East,3.5,-,N/A,,Mostly Cloudy,90,2014-01-11 06:45:00
8:00 AM,40,38,92,30.20,9,East,4.5,,,,Partly Cloudy,90,2014-01-11 07:00:00
8:15 AM,41.0,39.2,93,30.18,6.2,ENE,3.5,-,N/A,,Mostly Cloudy,60,2014-01-11 07:15:00
8:45 AM,41.0,39.2,93,30.18,6.2,NNE,3.5,-,N/A,,Mostly Cloudy,20,2014-01-11 07:45:00
9:00 AM,41,39,92,30.20,9,NNE,2.2,,,,Partly Cloudy,20,2014-01-11 08:00:00
9:00 AM,-9999,-9999,N/A,-9999,6.2,East,4.6,-,N/A,,Overcast,100,2014-01-11 08:00:00
9:15 AM,42.8,39.2,87,30.18,6.2,NE,2.3,-,N/A,,Mostly Cloudy,40,2014-01-11 08:15:00
9:45 AM,42.8,39.2,87,30.18,6.2,NE,2.3,-,N/A,,Scattered Clouds,40,2014-01-11 08:45:00
10:00 AM,43,40,84,30.19,12,NE,2.2,,,,Partly Cloudy,40,2014-01-11 09:00:00
10:15 AM,42.8,39.2,87,30.18,6.2,ENE,2.3,-,N/A,,Scattered Clouds,60,2014-01-11 09:15:00
10:45 AM,44.6,41.0,87,30.15,6.2,WNW,1.2,-,N/A,,Mostly Cloudy,290,2014-01-11 09:45:00
11:00 AM,44,40,83,30.18,9,WNW,2.2,,,,Partly Cloudy,290,2014-01-11 10:00:00
11:15 AM,46.4,42.8,87,30.15,6.2,SW,2.3,-,N/A,,Mostly Cloudy,230,2014-01-11 10:15:00
11:45 AM,46.4,42.8,87,30.15,6.2,SSW,4.6,-,N/A,,Mostly Cloudy,210,2014-01-11 10:45:00
12:00 PM,47,42,78,30.16,12,SSW,4.5,,,,Partly Cloudy,210,2014-01-11 11:00:00
12:00 PM,-9999,-9999,N/A,-9999,6.2,SSW,5.8,-,N/A,,Scattered Clouds,210,2014-01-11 11:00:00
12:15 PM,48.2,42.8,82,30.15,-9999.0,SW,3.5,-,N/A,,Clear,230,2014-01-11 11:15:00
12:45 PM,50.0,44.6,82,30.12,-9999.0,West,3.5,-,N/A,,Clear,270,2014-01-11 11:45:00
1:00 PM,49,44,76,30.14,9,West,4.5,,,,Partly Cloudy,270,2014-01-11 12:00:00
1:15 PM,50.0,44.6,82,30.12,6.2,WSW,4.6,-,N/A,,Scattered Clouds,240,2014-01-11 12:15:00
1:45 PM,51.8,44.6,76,30.12,6.2,WSW,4.6,-,N/A,,Partly Cloudy,250,2014-01-11 12:45:00
2:00 PM,52,44,68,30.13,14,WSW,4.5,,,,Partly Cloudy,250,2014-01-11 13:00:00
2:15 PM,51.8,44.6,76,30.12,6.2,West,4.6,-,N/A,,Partly Cloudy,260,2014-01-11 13:15:00
2:45 PM,51.8,44.6,76,30.12,6.2,West,5.8,-,N/A,,Scattered Clouds,270,2014-01-11 13:45:00
3:00 PM,52,44,68,30.12,16,West,6.7,,,,Partly Cloudy,270,2014-01-11 14:00:00
3:00 PM,-9999,-9999,N/A,-9999,-9999.0,West,5.8,-,N/A,,Clear,260,2014-01-11 14:00:00
3:15 PM,51.8,44.6,76,30.12,6.2,West,5.8,-,N/A,,Mostly Cloudy,260,2014-01-11 14:15:00
3:45 PM,50.0,44.6,82,30.12,-9999.0,West,5.8,-,N/A,,Clear,260,2014-01-11 14:45:00
4:00 PM,50,44,73,30.12,16,West,4.5,,,,Partly Cloudy,260,2014-01-11 15:00:00
4:15 PM,48.2,42.8,82,30.09,-9999.0,West,3.5,-,N/A,,Clear,260,2014-01-11 15:15:00
4:45 PM,48.2,42.8,82,30.09,-9999.0,WSW,3.5,-,N/A,,Clear,240,2014-01-11 15:45:00
5:00 PM,48,43,77,30.12,16,WSW,2.2,,,,Partly Cloudy,240,2014-01-11 16:00:00
5:15 PM,48.2,42.8,82,30.09,-9999.0,SW,3.5,-,N/A,,Clear,230,2014-01-11 16:15:00
5:45 PM,46.4,42.8,87,30.09,-9999.0,SW,4.6,-,N/A,,Clear,220,2014-01-11 16:45:00
6:00 PM,47,43,82,30.12,16,SW,4.5,,,,Partly Cloudy,220,2014-01-11 17:00:00
6:15 PM,44.6,41.0,87,30.09,-9999.0,SSW,5.8,-,N/A,,Clear,210,2014-01-11 17:15:00
6:45 PM,48.2,42.8,82,30.09,-9999.0,SW,5.8,-,N/A,,Clear,220,2014-01-11 17:45:00
7:00 PM,47,43,82,30.12,16,SW,6.7,,,,Partly Cloudy,220,2014-01-11 18:00:00
7:15 PM,48.2,42.8,82,30.09,-9999.0,SW,6.9,-,N/A,,Clear,230,2014-01-11 18:15:00
7:45 PM,48.2,42.8,82,30.09,-9999.0,WSW,4.6,-,N/A,,Clear,240,2014-01-11 18:45:00
8:00 PM,48,43,77,30.11,16,WSW,4.5,,,,Partly Cloudy,240,2014-01-11 19:00:00
8:15 PM,48.2,42.8,82,30.09,-9999.0,SW,4.6,-,N/A,,Clear,230,2014-01-11 19:15:00
8:45 PM,44.6,42.8,93,30.09,-9999.0,SSW,5.8,-,N/A,,Clear,210,2014-01-11 19:45:00
9:00 PM,45,42,86,30.11,16,SSW,6.7,,,,Partly Cloudy,210,2014-01-11 20:00:00
9:45 PM,46.4,42.8,87,30.09,-9999.0,SW,5.8,-,N/A,,Clear,230,2014-01-11 20:45:00
10:00 PM,47,43,81,30.11,16,SW,6.7,,,,Partly Cloudy,230,2014-01-11 21:00:00
10:45 PM,46.4,42.8,87,30.09,-9999.0,WSW,8.1,-,N/A,,Clear,240,2014-01-11 21:45:00
11:00 PM,47,43,80,30.11,16,WSW,8.9,,,,Partly Cloudy,240,2014-01-11 22:00:00
11:45 PM,44.6,41.0,87,30.09,-9999.0,SW,8.1,-,N/A,,Clear,230,2014-01-11 22:45:00